TimeCDT,TemperatureF,Dew PointF,Humidity,Sea Level PressureIn,VisibilityMPH,Wind Direction,Wind SpeedMPH,Gust SpeedMPH,PrecipitationIn,Events,Conditions,WindDirDegrees,DateUTC
12:15 AM,64.4,57.2,77,30.03,10.0,SW,4.6,-,N/A,,Clear,230,2013-09-03 05:15:00
12:35 AM,64.4,59.0,83,30.02,10.0,Calm,Calm,-,N/A,,Clear,0,2013-09-03 05:35:00
12:55 AM,62.6,59.0,88,30.03,10.0,Calm,Calm,-,N/A,,Clear,0,2013-09-03 05:55:00
1:15 AM,62.6,59.0,88,30.03,10.0,Calm,Calm,-,N/A,,Clear,0,2013-09-03 06:15:00
1:35 AM,62.6,59.0,88,30.03,10.0,Calm,Calm,-,N/A,,Clear,0,2013-09-03 06:35:00
1:55 AM,62.6,59.0,88,30.03,10.0,NNE,3.5,-,N/A,,Clear,30,2013-09-03 06:55:00
2:15 AM,60.8,59.0,94,30.03,10.0,Calm,Calm,-,N/A,,Clear,0,2013-09-03 07:15:00
2:35 AM,60.8,59.0,94,30.04,10.0,Calm,Calm,-,N/A,,Clear,0,2013-09-03 07:35:00
2:55 AM,60.8,59.0,94,30.04,10.0,Calm,Calm,-,N/A,,Clear,0,2013-09-03 07:55:00
3:15 AM,60.8,59.0,94,30.04,10.0,Calm,Calm,-,N/A,,Clear,0,2013-09-03 08:15:00
3:35 AM,60.8,59.0,94,30.04,10.0,Calm,Calm,-,N/A,,Clear,0,2013-09-03 08:35:00
3:55 AM,60.8,57.2,88,30.04,10.0,Calm,Calm,-,N/A,,Clear,0,2013-09-03 08:55:00
4:15 AM,59.0,57.2,94,30.03,10.0,Calm,Calm,-,N/A,,Clear,0,2013-09-03 09:15:00
4:35 AM,59.0,57.2,94,30.04,10.0,Calm,Calm,-,N/A,,Clear,0,2013-09-03 09:35:00
4:55 AM,59.0,57.2,94,30.04,10.0,Calm,Calm,-,N/A,,Clear,0,2013-09-03 09:55:00
5:15 AM,59.0,57.2,94,30.04,10.0,North,3.5,-,N/A,,Clear,10,2013-09-03 10:15:00
5:35 AM,59.0,57.2,94,30.05,10.0,North,5.8,-,N/A,,Clear,350,2013-09-03 10:35:00
5:55 AM,59.0,55.4,88,30.05,10.0,North,4.6,-,N/A,,Clear,350,2013-09-03 10:55:00
6:20 AM,59.0,57.2,94,30.05,10.0,NNW,5.8,-,N/A,,Partly Cloudy,330,2013-09-03 11:20:00
7:50 AM,60.8,60.8,100,30.08,7.0,NNW,8.1,-,N/A,,Partly Cloudy,330,2013-09-03 12:50:00
8:50 AM,68.0,62.6,83,30.09,7.0,North,8.1,-,N/A,,Partly Cloudy,350,2013-09-03 13:50:00
9:50 AM,77.0,62.6,61,30.10,7.0,Calm,Calm,-,N/A,,Partly Cloudy,0,2013-09-03 14:50:00
10:50 AM,82.4,62.6,51,30.10,10.0,SE,5.8,-,N/A,,Partly Cloudy,130,2013-09-03 15:50:00
11:50 AM,86.0,60.8,43,30.09,10.0,West,8.1,-,N/A,,Partly Cloudy,260,2013-09-03 16:50:00
12:50 PM,87.8,57.2,35,30.08,10.0,NE,8.1,-,N/A,,Partly Cloudy,40,2013-09-03 17:50:00
1:50 PM,89.6,57.2,33,30.06,10.0,ENE,6.9,-,N/A,,Partly Cloudy,60,2013-09-03 18:50:00
2:59 PM,91.4,57.2,31,30.03,10.0,NNE,6.9,-,N/A,,Partly Cloudy,30,2013-09-03 19:59:00
4:50 PM,93.2,55.4,28,30.00,10.0,NE,4.6,-,N/A,,Partly Cloudy,40,2013-09-03 21:50:00
5:50 PM,91.4,55.4,29,29.99,10.0,NE,4.6,-,N/A,,Partly Cloudy,50,2013-09-03 22:50:00
6:50 PM,89.6,55.4,31,29.99,10.0,East,9.2,-,N/A,,Partly Cloudy,90,2013-09-03 23:50:00
7:50 PM,80.6,55.4,42,29.99,10.0,East,6.9,-,N/A,,Partly Cloudy,100,2013-09-04 00:50:00
8:50 PM,73.4,55.4,53,30.00,10.0,East,8.1,-,N/A,,Partly Cloudy,90,2013-09-04 01:50:00
9:15 PM,73.4,55.4,53,30.01,10.0,East,9.2,-,N/A,,Clear,100,2013-09-04 02:15:00
9:35 PM,71.6,55.4,57,30.02,10.0,East,9.2,-,N/A,,Clear,90,2013-09-04 02:35:00
9:55 PM,71.6,57.2,60,30.03,10.0,East,9.2,-,N/A,,Clear,90,2013-09-04 02:55:00
10:15 PM,71.6,57.2,60,30.04,10.0,East,9.2,-,N/A,,Clear,100,2013-09-04 03:15:00
10:35 PM,69.8,57.2,64,30.04,10.0,East,9.2,-,N/A,,Clear,100,2013-09-04 03:35:00
10:55 PM,69.8,57.2,64,30.04,10.0,East,9.2,-,N/A,,Clear,90,2013-09-04 03:55:00
11:15 PM,69.8,59.0,68,30.04,10.0,East,10.4,-,N/A,,Clear,100,2013-09-04 04:15:00
11:35 PM,69.8,59.0,68,30.04,10.0,East,9.2,-,N/A,,Clear,100,2013-09-04 04:35:00
11:55 PM,69.8,59.0,68,30.05,10.0,East,9.2,-,N/A,,Clear,100,2013-09-04 04:55:00